TIROS 8 DEB, 19396

Orbit data source: Space-Track

TIROS 8 DEB, 19396 is space debris in LEO originally from a launch on Sat, 21 Dec 1963 UTC launched from the Air Force Western Test Range (AFWTR). Debris objects in space refer to the collection of defunct objects orbiting the Earth. Examples of debris include non-operational satellites, rocket bodies, and fragments generated from explosions, collisions, or faulty payload assembly.

Loading next visibility...
Identifier
19396, 1963-054E
Orbit
LEO
Country
Flag of USUS
Related business
Manufacturer
Unknown
Mission
Spacecraft
Bus & Motor
Unknown
Mass
Unknown
Launch date (UTC)
1963-12-21 (63 years ago)
Launch vehicle
Unknown
Launch site
Air Force Western Test Range (AFWTR)
Object type
Payload
Rocket body
Debris
Shape & HBR
Unknown shape, 0.1 m
Radar Cross Section
Medium (>0.1 m² and <1 m²)

Expand to show TLE details & history
Last TLE update: 3 days ago

TLE from 3 days ago
0 TIROS 8 DEB
1 19396U 63054E   26262.42733298  .00003318  00000-0  18491-3 0  9993
2 19396  58.4645 258.8255 0015148 152.8058 207.3798 15.16065187 48744
Epoch: 2026-09-19T10:15Z
TLE epoch observation values (Epoch: 2026-09-19T10:15:21.569Z)
Latitude
-0.00001°
Longitude
106.6496°
Altitude
528.469 km
Speed
7.595 km/s
True Right ascension
17h 15m 18s
True Declination
0° 00' 00"
Sunlit
Object was in daylight at epoch
Visualization orbit readout
Latitude
Unknown
Longitude
Unknown
Altitude
Unknown
Speed
Unknown
Apparent Right ascension
Unknown
Apparent Declination
Unknown
Sunlit
N/A
Visualization observer readout
Local Sidereal Time
16:43:20
Azimuth
Unknown
Elevation
Unknown
Doppler factor
Unknown
Orbital elements
Apogee altitude
527.623 km
Perigee altitude
506.733 km
Semi-major axis
6,895.315 km
Eccentricity
0.00151
Inclination
58.4645°
RAAN
258.8255°
Arg. of periapsis
152.8058°
True anomaly
207.30011°
Mean anomaly
207.3798°
Eccentric anomaly
207.33994°
Mean motion
3.79064 °/min
Orbital period
94.97 mins
BSTAR
0.00018491
Loading maneuver chart data...
Computing Atmospheric mass density...
Loading historical data...
Loading historical data...
Loading historical data...
Loading historical data...
Loading historical data...
Loading historical data...
Loading historical data...
Other satellites on launch #54 in the year 1963 (1963-12-21 UTC)

Documentation

Showing up to 5 results
|